This is the latest recevied weather packets stored in our database for station/object KD5FHA. If no packets are shown the sender has not sent any weather packets the latest 1 day(s).
| Time | Temp. | Humidity | Pressure | Rain* | Wind** | Luminosity | Snow |
|---|---|---|---|---|---|---|---|
| 1778078953 | 12.22° C | 84% | 1016.8 hPa | 0 mm | - | 18 W/m² | - |
| 1778078649 | 12.22° C | 84% | 1016.1 hPa | 0 mm | - | 41 W/m² | - |
| 1778078348 | 12.22° C | 84% | 1016.3 hPa | 0 mm | - | 41 W/m² | - |
| 1778076836 | 12.78° C | 81% | 1015.2 hPa | 0 mm | - | 38 W/m² | - |
| 1778076534 | 12.78° C | 81% | 1014.5 hPa | 0 mm | - | 57 W/m² | - |
| 1778075017 | 12.78° C | 78% | 1014.5 hPa | 0 mm | - | 65 W/m² | - |
| 1778074411 | 13.33° C | 77% | 1014.3 hPa | 0 mm | - | 74 W/m² | - |
| 1778073805 | 13.33° C | 76% | 1014.1 hPa | 0 mm | - | 78 W/m² | - |
| 1778072896 | 13.33° C | 77% | 1013.7 hPa | 0 mm | - | 70 W/m² | - |
| 1778071687 | 13.33° C | 77% | 1013.5 hPa | 0 mm | - | 44 W/m² | - |
| 1778071081 | 13.33° C | 77% | 1013.3 hPa | 0 mm | - | 30 W/m² | - |
| 1778069871 | 13.89° C | 76% | 1013 hPa | 0 mm | - | 20 W/m² | - |
| 1778069568 | 13.89° C | 77% | 1013 hPa | 0 mm | - | 14 W/m² | - |
| 1778069265 | 13.89° C | 76% | 1013.1 hPa | 0 mm | - | 12 W/m² | - |
| 1778068963 | 13.89° C | 77% | 1012.9 hPa | 0 mm | - | 13 W/m² | - |
| 1778068056 | 13.89° C | 77% | 1012.9 hPa | 0 mm | - | 2 W/m² | - |
| 1778067753 | 13.89° C | 77% | 1012.8 hPa | 0 mm | - | 2 W/m² | - |
| 1778066240 | 14.44° C | 77% | 1012.4 hPa | 0 mm | - | 0 W/m² | - |
| 1778065634 | 15° C | 76% | 1012.4 hPa | 0 mm | - | 0 W/m² | - |
| 1778064424 | 15° C | 77% | 1011.9 hPa | 0 mm | - | 0 W/m² | - |
| 1778064121 | 15° C | 77% | 1011.9 hPa | 0 mm | - | 0 W/m² | - |
| 1778063818 | 15° C | 77% | 1011.7 hPa | 0 mm | - | 0 W/m² | - |
| 1778063515 | 15.56° C | 77% | 1011.5 hPa | 0 mm | - | 0 W/m² | - |
| 1778063213 | 15.56° C | 76% | 1011.4 hPa | 0 mm | - | 0 W/m² | - |
| 1778062910 | 15.56° C | 77% | 1011.3 hPa | 0 mm | - | 0 W/m² | - |
* Rain latest hour (hover to see other rain measurements)
** Current wind speed in m/s (hover to see current wind gust speed)